Weather History for Vicksburg, MS

Change the Weather History Date:

Wednesday, December 19, 2012

  Actual Average Record
Temperature  
Mean Temperature 63 °F 47 °F  
Max Temperature 78 °F 58 °F 78 °F (2012)
Min Temperature 48 °F 37 °F 14 °F (1981)
Degree Days  
Heating Degree Days 2 18  
Month to date heating degree days 146 310  
Since 1 July heating degree days 704 712  
Cooling Degree Days 0 0  
Month to date cooling degree days 10 0  
Year to date cooling degree days 2407 2225  
Growing Degree Days 12 (Base 50)    
Moisture  
Dew Point 52 °F    
Average Humidity 65    
Maximum Humidity 93    
Minimum Humidity 36    
Precipitation  
Precipitation T in 0.18 in 1.26 in (1995)
Month to date precipitation 5.79 3.66  
Year to date precipitation 52.15 52.79  
Sea Level Pressure  
Sea Level Pressure 29.91 in    
Wind  
Wind Speed 11 mph (SSE)    
Max Wind Speed 22 mph    
Max Gust Speed 31 mph    
Visibility 10 miles    
Events      
T = Trace of Precipitation, MM = Missing Value Source: NWS Daily Summary

Daily Weather History Graph

Daily Weather History Graph

Search for Another Location

Airport:

Trip Planner

Search our weather history database for the weather conditions in past years. The results will help you decide how hot, cold, wet, or windy it might be!

Date:

Astronomy

Dec. 19, 2012 Rise Set
Actual Time 7:00 AM CST 5:02 PM CST
Civil Twilight 6:33 AM CST 5:29 PM CST
Nautical Twilight 6:02 AM CST 6:00 PM CST
Astronomical Twilight 5:32 AM CST 6:30 PM CST
Moon 11:31 AM CST (12/19) No Moon Set
Length of Visible Light 10h 56m
Length of Day
10h 01m
Waxing Crescent, 45% of the Moon is Illuminated
Dec 19
Waxing Crescent
Dec 19
First Quarter
Dec 28
Full
Jan 4
Last Quarter
Jan 11
New

Hourly Weather History & Observations

Time (CST) Temp. Dew Point Humidity Pressure Visibility Wind Dir Wind Speed Gust Speed Precip Events Conditions
12:53 AM 51.1 °F 45.0 °F 80% 29.97 in 10.0 mi South 6.9 mph - N/A   Clear
1:53 AM 50.0 °F 44.1 °F 80% 29.97 in 10.0 mi SSE 6.9 mph - N/A   Clear
2:53 AM 50.0 °F 45.0 °F 83% 29.97 in 10.0 mi SSE 8.1 mph - N/A   Clear
3:53 AM 48.0 °F 44.1 °F 86% 29.97 in 10.0 mi SSE 6.9 mph - N/A   Clear
4:53 AM 48.0 °F 45.0 °F 89% 29.97 in 10.0 mi SSE 6.9 mph - N/A   Clear
5:53 AM 48.9 °F 46.9 °F 93% 29.97 in 10.0 mi SE 6.9 mph - N/A   Clear
6:53 AM 48.9 °F 46.9 °F 93% 29.99 in 10.0 mi SE 5.8 mph - N/A   Clear
7:53 AM 53.1 °F 50.0 °F 89% 30.01 in 10.0 mi SSE 6.9 mph - N/A   Clear
8:53 AM 57.9 °F 52.0 °F 81% 30.02 in 10.0 mi SSE 6.9 mph - N/A   Clear
9:53 AM 64.0 °F 54.0 °F 70% 30.01 in 10.0 mi SSE 10.4 mph - N/A   Clear
10:53 AM 70.0 °F 54.0 °F 57% 29.98 in 10.0 mi South 13.8 mph 21.9 mph N/A   Clear
11:53 AM 73.0 °F 53.1 °F 49% 29.94 in 10.0 mi South 10.4 mph - N/A   Clear
12:53 PM 77.0 °F 52.0 °F 42% 29.91 in 10.0 mi SSE 11.5 mph - N/A   Clear
1:53 PM 75.9 °F 46.9 °F 36% 29.88 in 10.0 mi SSE 13.8 mph - N/A   Clear
2:53 PM 77.0 °F 48.9 °F 37% 29.87 in 10.0 mi South 12.7 mph - N/A   Clear
3:53 PM 75.0 °F 48.9 °F 40% 29.86 in 10.0 mi SSE 11.5 mph 19.6 mph N/A   Clear
4:53 PM 72.0 °F 50.0 °F 46% 29.87 in 10.0 mi SSE 11.5 mph - N/A   Clear
5:53 PM 68.0 °F 52.0 °F 56% 29.86 in 10.0 mi SE 10.4 mph - N/A   Partly Cloudy
6:53 PM 69.1 °F 54.0 °F 58% 29.83 in 10.0 mi SE 13.8 mph - N/A   Scattered Clouds
7:53 PM 70.0 °F 59.0 °F 68% 29.84 in 10.0 mi SSE 16.1 mph 25.3 mph N/A   Overcast
8:53 PM 68.0 °F 61.0 °F 78% 29.83 in 10.0 mi SSE 11.5 mph - N/A   Clear
9:53 PM 69.1 °F 62.1 °F 78% 29.81 in 10.0 mi SSE 17.3 mph 24.2 mph N/A   Mostly Cloudy
10:32 PM 68.0 °F 62.6 °F 83% 29.77 in 10.0 mi SSE 17.3 mph 21.9 mph N/A   Mostly Cloudy
10:53 PM 69.1 °F 63.0 °F 81% 29.78 in 10.0 mi South 15.0 mph 24.2 mph N/A   Overcast
11:53 PM 69.1 °F 64.0 °F 84% 29.78 in 10.0 mi South 11.5 mph - 0.00 in   Overcast